1484924401.24,65412,8.25,74134.0,-5.99,-6.97,-6.93,0,*55
1484924402.49,65413,8.31,74136.8,-6.01,-6.97,-6.93,0,*56
1484924403.69,65414,8.25,74134.0,-5.97,-6.81,-6.81,0,*59
1484924404.93,65415,8.31,74142.8,-5.99,-6.85,-6.93,0,*51
1484924406.15,65416,8.25,74138.3,-5.99,-6.85,-6.85,0,*55
1484924407.37,65417,8.25,74136.0,-5.99,-6.85,-6.81,0,*50
1484924408.59,65418,8.25,74138.3,-5.99,-6.85,-6.81,0,*5F
1484924409.81,65419,8.31,74140.3,-5.99,-6.85,-6.81,0,*5E
1484924411.04,65420,8.31,74144.5,-5.99,-6.85,-6.81,0,*54
1484924412.26,65421,8.31,74146.8,-5.99,-6.85,-6.81,0,*55
1484924413.45,65422,8.31,74146.3,-5.97,-6.73,-6.77,0,*58
1484924414.64,65423,8.31,74144.3,-5.97,-6.73,-6.73,0,*5D
1484924415.83,65424,8.31,74144.0,-5.97,-6.47,-6.39,0,*53
1484924417.03,65425,8.31,74142.8,-5.97,-6.77,-6.77,0,*5B
1484924418.23,65426,8.31,74142.8,-5.95,-6.77,-6.77,0,*5A
1484924419.44,65427,8.31,74140.8,-5.95,-6.77,-6.73,0,*5F
1484924420.63,65428,8.25,74142.0,-5.97,-6.81,-6.77,0,*5F
1484924421.83,65429,8.31,74144.8,-5.97,-6.81,-6.77,0,*5E
1484924423.02,65430,8.31,74146.5,-5.97,-6.81,-6.77,0,*56
1484924424.22,65431,8.31,74142.8,-5.97,-6.89,-6.81,0,*56
1484924425.47,65432,8.31,74142.5,-5.95,-7.01,-6.93,0,*55
1484924426.72,65433,8.31,74140.8,-5.95,-7.01,-7.01,0,*5E
1484924427.94,65434,8.31,74146.0,-5.97,-7.15,-7.05,0,*5A
1484924429.19,65435,8.31,74140.8,-5.95,-6.93,-6.93,0,*58
1484924430.44,65436,8.31,74140.5,-5.97,-6.93,-6.93,0,*59
1484924431.66,65437,8.25,74138.0,-5.95,-7.15,-7.05,0,*5B
1484924432.91,65438,8.31,74144.0,-5.95,-7.05,-6.93,0,*5B
1484924434.15,65439,8.25,74138.3,-5.97,-7.01,-7.05,0,*52
1484924435.37,65440,8.31,74142.0,-5.97,-6.93,-6.89,0,*53
1484924436.59,65441,8.31,74144.3,-5.97,-6.93,-6.89,0,*52
1484924437.78,65442,8.31,74142.8,-5.97,-6.89,-6.89,0,*5A
1484924439.02,65443,8.25,74144.5,-5.97,-7.01,-7.01,0,*5B
1484924440.26,65444,8.31,74150.3,-5.97,-7.01,-7.05,0,*58
1484924441.5,65445,8.31,74144.5,-5.97,-7.05,-7.01,0,*59
1484924442.74,65446,8.31,74146.3,-5.97,-6.93,-7.01,0,*54
1484924443.94,65447,8.31,74142.3,-5.97,-6.81,-6.89,0,*57
1484924445.14,65448,8.31,74146.0,-5.97,-6.77,-6.81,0,*59
1484924446.34,65449,8.31,74144.0,-5.97,-6.81,-6.89,0,*59
1484924447.53,65450,8.25,74146.8,-5.97,-6.81,-6.77,0,*50
1484924448.73,65451,8.25,74146.5,-5.97,-6.89,-6.89,0,*58
1484924449.97,65452,8.25,74144.5,-5.97,-7.01,-7.01,0,*5B
1484924451.21,65453,8.31,74146.0,-5.97,-7.01,-7.01,0,*5A
1484924452.45,65454,8.25,74138.5,-5.97,-7.01,-6.93,0,*57
1484924453.71,65455,8.25,74136.8,-5.95,-6.93,-6.93,0,*5E
1484924454.94,65456,8.31,74142.3,-5.95,-6.93,-6.89,0,*56
1484924456.18,65457,8.25,74140.5,-5.95,-7.05,-7.05,0,*5C
1484924457.39,65458,8.31,74142.3,-5.97,-7.15,-7.05,0,*50
1484924458.63,65459,8.25,74140.3,-5.97,-7.05,-7.05,0,*50
1484924459.84,65460,8.25,74140.5,-5.97,-7.15,-7.05,0,*5B
1484924461.05,65461,8.25,74140.5,-5.97,-7.15,-7.05,0,*5A
1484924462.29,65462,8.25,74140.8,-5.97,-7.05,-7.01,0,*5C
1484924463.53,65463,8.25,74140.8,-5.97,-7.01,-7.01,0,*59
1484924464.73,65464,8.31,74142.5,-5.97,-7.15,-7.15,0,*5E
1484924465.97,65465,8.25,74140.3,-5.97,-7.31,-7.27,0,*58
1484924467.22,65466,8.25,74140.3,-5.99,-7.35,-7.23,0,*55
1484924468.48,65467,8.31,74142.8,-5.99,-7.31,-7.31,0,*53
1484924469.75,65468,8.31,74144.5,-5.99,-7.43,-7.31,0,*59
1484924470.99,65469,8.31,74142.8,-5.99,-7.49,-7.57,0,*52
1484924472.21,65470,8.25,74134.8,-5.99,-7.49,-7.49,0,*55
1484924473.46,65471,8.25,74132.5,-6.01,-7.57,-7.57,0,*56
1484924474.68,65472,8.25,74130.5,-6.01,-7.57,-7.49,0,*5A
1484924475.92,65473,8.25,74126.5,-6.01,-7.35,-7.35,0,*54
1484924477.17,65474,8.25,74124.8,-6.01,-7.43,-7.35,0,*52
1484924478.44,65475,8.25,74134.3,-5.99,-7.43,-7.35,0,*51
1484924479.66,65476,8.25,74132.3,-6.01,-7.49,-7.43,0,*5B
1484924480.91,65477,8.25,74132.8,-6.01,-7.61,-7.57,0,*55
1484924482.15,65478,8.25,74136.8,-6.01,-7.61,-7.57,0,*5A
1484924483.37,65479,8.25,74140.3,-6.05,-7.65,-7.53,0,*5F
1484924484.59,65480,8.25,74140.3,-6.05,-7.53,-7.39,0,*50
1484924485.81,65481,8.25,74138.8,-6.05,-7.49,-7.39,0,*5A
1484924487.05,65482,8.31,74138.0,-6.05,-7.39,-7.27,0,*51
1484924488.28,65483,8.25,74134.0,-6.05,-7.35,-7.23,0,*58
1484924489.55,65484,8.25,74138.5,-6.07,-7.39,-7.27,0,*55
1484924490.79,65485,8.25,74140.5,-6.05,-7.39,-7.35,0,*55
1484924492.01,65486,8.25,74136.0,-6.05,-7.53,-7.39,0,*56
1484924493.23,65487,8.25,74130.0,-6.05,-7.53,-7.39,0,*57
1484924494.47,65488,8.25,74130.3,-6.05,-7.39,-7.27,0,*5B
1484924495.74,65489,8.31,74132.3,-6.07,-7.43,-7.39,0,*5A
1484924497.01,65490,8.25,74130.8,-6.07,-7.39,-7.31,0,*57
1484924498.26,65491,8.25,74132.3,-6.07,-7.27,-7.19,0,*53
1484924499.48,65492,8.25,74132.8,-6.05,-7.15,-7.01,0,*5A
1484924500.68,65493,8.25,74134.0,-6.01,-7.11,-7.11,0,*5A
1484924501.89,65494,8.25,74130.8,-6.05,-7.23,-7.11,0,*58
1484924503.11,65495,8.25,74134.3,-6.05,-7.15,-7.01,0,*5D
1484924504.31,65496,8.25,74134.0,-6.05,-7.23,-7.15,0,*5E
1484924505.56,65497,8.25,74134.8,-6.07,-7.27,-7.19,0,*55
1484924506.8,65498,8.31,74140.0,-6.05,-7.01,-7.01,0,*55
1484924508.05,65499,8.25,74140.8,-6.05,-6.97,-6.97,0,*54
1484924509.3,65500,8.25,74142.3,-6.05,-7.01,-7.01,0,*55
1484924510.5,65501,8.25,74138.3,-6.05,-7.15,-7.15,0,*54
1484924511.74,65502,8.25,74134.3,-6.05,-7.39,-7.35,0,*5B
1484924513.01,65503,8.31,74138.0,-6.07,-7.31,-7.31,0,*54
1484924514.21,65504,8.25,74128.0,-6.05,-7.15,-7.15,0,*51
1484924515.43,65505,8.25,74134.0,-6.05,-7.15,-7.01,0,*55
1484924516.63,65506,8.25,74134.8,-6.05,-7.11,-6.89,0,*53
1484924517.85,65507,8.25,74132.8,-6.05,-7.01,-6.89,0,*53
1484924519.1,65508,8.25,74136.5,-6.05,-6.97,-6.97,0,*5D
1484924520.33,65509,8.31,74136.0,-6.05,-7.11,-7.01,0,*5D
1484924521.57,65510,8.25,74132.5,-6.01,-7.05,-6.97,0,*5A
1484924522.78,65511,8.25,74138.0,-6.01,-7.11,-7.05,0,*54
1484924523.99,65512,8.25,74138.0,-6.05,-7.11,-7.11,0,*56
1484924525.2,65513,8.25,74138.5,-6.05,-7.11,-7.11,0,*57
1484924526.4,65514,8.25,74136.8,-6.01,-7.19,-7.11,0,*5C
1484924527.6,65515,8.25,74138.3,-6.05,-7.11,-7.11,0,*51
1484924528.81,65516,8.25,74138.8,-6.05,-7.15,-7.11,0,*56
1484924530.01,65517,8.31,74142.3,-6.05,-7.11,-7.11,0,*53
1484924531.25,65518,8.25,74142.5,-6.01,-6.97,-7.05,0,*52
1484924532.45,65519,8.25,74140.0,-6.01,-6.85,-6.85,0,*59
1484924533.69,65520,8.25,74142.0,-6.05,-6.97,-6.97,0,*57
1484924534.94,65521,8.25,74138.3,-6.05,-6.97,-6.97,0,*56
1484924536.17,65522,8.25,74142.0,-6.05,-6.97,-6.89,0,*5A
1484924537.39,65523,8.25,74142.8,-6.05,-6.89,-6.97,0,*5B
1484924538.61,65524,8.31,74146.8,-6.01,-6.93,-6.85,0,*50
1484924539.86,65525,8.25,74144.5,-6.05,-6.97,-6.97,0,*52
1484924541.1,65526,8.25,74142.5,-6.05,-7.01,-6.97,0,*5F
1484924542.32,65527,8.25,74138.3,-6.01,-6.97,-6.85,0,*57
1484924543.54,65528,8.25,74136.3,-6.01,-6.93,-6.85,0,*5C
1484924544.74,65529,8.25,74132.5,-6.05,-6.89,-6.89,0,*5E
1484924545.94,65530,8.25,74128.5,-6.05,-6.89,-6.89,0,*56
1484924547.13,65531,8.25,74134.3,-6.05,-6.89,-6.89,0,*57
1484924548.33,65532,8.25,74132.8,-6.05,-6.89,-6.89,0,*54
1484924549.52,65533,8.25,74134.5,-6.05,-6.89,-6.89,0,*55
1484924550.77,65534,8.25,74132.5,-6.01,-6.93,-6.93,0,*56
1484924552.01,65535,8.25,74136.0,-6.01,-6.97,-7.05,0,*5D
1484924553.26,0,8.25,74138.5,-5.99,-6.97,-6.93,0,*51
1484924554.48,1,8.25,74136.5,-6.01,-7.05,-6.97,0,*5C
1484924555.69,2,8.25,74138.5,-6.01,-6.97,-7.05,0,*5F
1484924556.92,3,8.25,74136.8,-6.01,-6.97,-6.93,0,*50
1484924558.09,4,8.31,74140.0,-6.01,-6.85,-6.85,0,*53
1484924559.26,5,8.25,74142.8,-6.01,-6.85,-6.85,0,*52
1484924560.43,6,8.31,74142.5,-6.01,-6.85,-6.85,0,*51
1484924561.6,7,8.25,74138.8,-6.01,-6.85,-6.85,0,*50
1484924562.77,8,8.25,74140.0,-6.01,-6.85,-6.85,0,*5F
1484924563.94,9,8.25,74140.3,-6.01,-6.81,-6.81,0,*5E
1484924565.13,10,8.25,74142.5,-6.01,-6.81,-6.81,0,*66
1484924566.34,11,8.31,74146.0,-5.99,-6.81,-6.81,0,*65
1484924567.53,12,8.25,74140.5,-6.01,-6.81,-6.81,0,*64
1484924568.71,13,8.25,74142.8,-6.01,-6.81,-6.81,0,*65
1484924569.92,14,8.25,74136.0,-5.99,-6.77,-6.77,0,*60
1484924571.12,15,8.25,74136.3,-6.01,-6.85,-6.93,0,*64
1484924572.32,16,8.25,74138.5,-6.01,-7.05,-7.11,0,*65
1484924573.51,17,8.25,74134.5,-6.01,-7.11,-7.11,0,*61
1484924574.73,18,8.25,74132.8,-6.01,-7.05,-6.97,0,*64
1484924575.96,19,8.25,74132.3,-6.01,-6.93,-6.93,0,*6F
1484924577.17,20,8.25,74132.8,-6.01,-6.97,-6.85,0,*66
1484924578.37,21,8.25,74136.3,-6.01,-7.11,-7.05,0,*61
1484924579.55,22,8.25,74136.3,-6.01,-7.11,-7.11,0,*67
1484924580.77,23,8.25,74132.3,-6.01,-7.05,-7.05,0,*66
1484924581.96,24,8.25,74132.3,-6.01,-7.19,-7.11,0,*69
1484924583.18,25,8.25,74132.3,-6.01,-7.05,-6.97,0,*6A
1484924584.39,26,8.25,74134.5,-6.05,-7.01,-6.89,0,*66
1484924585.61,27,8.25,74132.5,-6.05,-7.01,-6.97,0,*68
1484924586.8,28,8.25,74134.0,-6.05,-7.23,-7.23,0,*69
1484924588.01,29,8.25,74134.3,-6.05,-7.27,-7.23,0,*6C
1484924589.21,30,8.25,74138.5,-6.05,-7.11,-7.01,0,*61
1484924590.44,31,8.25,74136.3,-6.05,-7.01,-7.01,0,*61
1484924591.64,32,8.25,74134.3,-6.05,-7.01,-6.89,0,*63
1484924592.85,33,8.25,74136.3,-6.05,-6.97,-6.89,0,*6C
1484924594.03,34,8.25,74134.3,-6.05,-6.89,-6.89,0,*64
1484924595.24,35,8.25,74132.5,-6.05,-6.97,-6.89,0,*6A
1484924596.42,36,8.25,74138.0,-6.05,-6.89,-6.89,0,*66
1484924597.61,37,8.25,74138.5,-6.05,-6.81,-6.81,0,*67
1484924598.81,38,8.25,74138.0,-6.01,-6.93,-6.85,0,*6B
1484924600.01,39,8.25,74136.5,-6.01,-6.85,-6.93,0,*6A
1484924601.22,40,8.25,74134.0,-6.01,-6.93,-6.85,0,*64
1484924602.44,41,8.25,74136.3,-6.01,-6.93,-6.93,0,*62
1484924603.67,42,8.25,74138.3,-6.01,-6.97,-6.97,0,*61
1484924604.89,43,8.25,74134.3,-6.01,-6.97,-7.05,0,*6A
1484924606.08,44,8.25,74134.8,-6.01,-7.19,-7.19,0,*67
1484924607.28,45,8.25,74134.3,-6.01,-7.31,-7.19,0,*6C
1484924608.46,46,8.25,74130.5,-6.01,-7.23,-7.11,0,*64
1484924609.69,47,8.25,74136.3,-6.05,-7.01,-6.97,0,*6E
1484924610.92,48,8.25,74136.3,-6.05,-6.97,-6.97,0,*6F
1484924612.15,49,8.25,74138.3,-6.05,-6.97,-6.97,0,*6E
1484924613.36,50,8.25,74134.3,-6.05,-7.11,-7.01,0,*67
1484924614.55,51,8.25,74134.8,-6.05,-7.11,-7.11,0,*67
1484924615.77,52,8.25,74132.5,-6.01,-7.05,-6.97,0,*6A
1484924616.99,53,8.25,74128.5,-6.01,-7.05,-7.05,0,*61
1484924618.18,54,8.25,74132.0,-6.05,-7.23,-7.23,0,*62
1484924619.36,55,8.31,74132.3,-6.05,-7.15,-7.15,0,*63
1484924620.57,56,8.25,74134.5,-6.07,-7.15,-7.15,0,*62
1484924621.75,57,8.25,74134.0,-6.05,-7.23,-7.15,0,*64
1484924622.96,58,8.25,74136.8,-6.07,-7.19,-7.19,0,*6C
1484924624.15,59,8.25,74138.0,-6.05,-7.15,-7.23,0,*6A
1484924625.33,60,8.31,74138.5,-6.05,-7.15,-7.11,0,*61
1484924626.54,61,8.25,74138.3,-6.05,-7.11,-7.01,0,*65
1484924627.72,62,8.25,74138.8,-6.05,-6.89,-6.89,0,*67
1484924628.9,63,8.25,74136.8,-6.05,-6.89,-6.89,0,*66
1484924630.16,64,8.25,74138.0,-6.07,-6.93,-6.93,0,*63
1484924631.34,65,8.25,74142.0,-6.05,-6.85,-6.85,0,*60
1484924632.54,66,8.25,74140.0,-6.07,-6.85,-6.89,0,*6D
1484924633.73,67,8.25,74136.8,-6.05,-6.85,-6.81,0,*66
1484924634.92,68,8.25,74140.3,-6.05,-6.81,-6.81,0,*6D
1484924636.11,69,8.25,74142.3,-6.05,-6.85,-6.81,0,*68
1484924637.28,70,8.31,74142.3,-6.05,-6.85,-6.85,0,*64
1484924638.47,71,8.25,74136.5,-6.05,-6.85,-6.81,0,*61
1484924639.64,72,8.25,74136.5,-6.01,-6.81,-6.77,0,*6B
1484924640.83,73,8.25,74136.3,-6.01,-6.81,-6.81,0,*63
1484924642.04,74,8.25,74138.3,-6.05,-6.97,-6.89,0,*6F
1484924643.24,75,8.25,74136.5,-6.05,-6.97,-6.89,0,*6E
1484924644.42,76,8.25,74138.3,-6.05,-6.89,-6.89,0,*62
1484924645.6,77,8.25,74136.5,-6.01,-6.85,-6.85,0,*67
1484924646.78,78,8.25,74138.8,-6.01,-6.85,-6.85,0,*68
1484924647.95,79,8.31,74136.5,-6.01,-6.85,-6.85,0,*69
1484924649.13,80,8.31,74138.3,-6.01,-6.85,-6.81,0,*6B
1484924650.31,81,8.25,74136.0,-6.01,-6.85,-6.77,0,*63
1484924651.49,82,8.25,74138.3,-6.01,-6.81,-6.77,0,*64
1484924652.67,83,8.25,74132.5,-6.01,-6.81,-6.81,0,*6C
1484924653.86,84,8.25,74140.8,-6.01,-6.81,-6.81,0,*6B
1484924655.05,85,8.25,74140.5,-6.01,-6.81,-6.81,0,*6A
1484924656.26,86,8.25,74140.8,-5.99,-6.81,-6.81,0,*6B
1484924657.46,87,8.31,74142.3,-5.99,-6.85,-6.81,0,*6E
1484924658.66,88,8.25,74136.3,-5.99,-6.85,-6.77,0,*68
1484924659.85,89,8.25,74138.8,-6.01,-6.81,-6.81,0,*66
1484924661.03,90,8.25,74140.0,-6.01,-6.81,-6.81,0,*6E
1484924662.24,91,8.25,74140.0,-5.99,-6.81,-6.81,0,*6D
1484924663.45,92,8.25,74142.3,-6.01,-6.93,-6.81,0,*6F
1484924664.65,93,8.25,74140.0,-5.99,-6.85,-6.85,0,*6F
1484924665.86,94,8.25,74142.5,-5.99,-6.85,-6.81,0,*6C
1484924667.09,95,8.31,74140.3,-5.99,-6.93,-6.81,0,*6A
1484924668.28,96,8.25,74140.0,-6.01,-6.81,-6.81,0,*68
1484924669.49,97,8.25,74138.5,-5.99,-6.81,-6.81,0,*6B
1484924670.69,98,8.31,74138.0,-5.99,-6.85,-6.85,0,*64
1484924671.91,99,8.25,74134.0,-5.99,-6.93,-6.85,0,*62
1484924673.17,100,8.31,74140.3,-5.99,-7.05,-6.93,0,*5A
1484924674.4,101,8.25,74138.8,-5.99,-7.11,-7.05,0,*50
1484924675.65,102,8.25,74136.8,-5.99,-7.05,-6.93,0,*58
1484924676.89,103,8.25,74138.0,-6.01,-6.97,-6.93,0,*51
1484924678.09,104,8.25,74138.0,-6.01,-6.85,-6.93,0,*55
1484924679.3,105,8.25,74136.0,-6.01,-6.93,-6.85,0,*54
1484924680.49,106,8.25,74138.5,-6.01,-6.85,-6.81,0,*54
1484924681.7,107,8.25,74138.5,-6.01,-6.97,-6.85,0,*52
1484924682.95,108,8.25,74136.3,-5.99,-7.05,-6.97,0,*56
1484924684.21,109,8.25,74134.8,-5.99,-7.05,-6.93,0,*53
1484924685.44,110,8.25,74140.8,-5.99,-7.11,-7.05,0,*50
1484924686.67,111,8.25,74140.8,-5.99,-7.11,-7.05,0,*51
1484924687.9,112,8.25,74138.3,-5.99,-7.11,-6.97,0,*58
1484924689.14,113,8.25,74140.3,-6.01,-6.97,-6.97,0,*54
1484924690.37,114,8.25,74140.0,-6.01,-6.97,-6.97,0,*53
1484924691.63,115,8.25,74136.8,-5.99,-6.97,-6.93,0,*54
1484924692.88,116,8.25,74142.5,-5.99,-7.05,-6.97,0,*59
1484924694.14,117,8.25,74138.8,-5.99,-7.05,-6.97,0,*58
1484924695.37,118,8.25,74142.3,-6.01,-7.05,-6.97,0,*55
1484924696.63,119,8.25,74142.8,-5.99,-6.97,-6.93,0,*58
1484924697.88,120,8.25,74138.8,-5.99,-7.05,-6.93,0,*58
1484924699.09,121,8.25,74142.5,-6.01,-7.05,-6.85,0,*5C
1484924700.29,122,8.25,74142.5,-6.01,-7.19,-7.05,0,*5B
1484924701.54,123,8.25,74144.3,-5.99,-7.05,-6.97,0,*5F
1484924702.77,124,8.25,74140.0,-5.99,-7.11,-7.05,0,*57
1484924704.0,125,8.25,74134.8,-6.01,-7.05,-6.93,0,*5F
1484924705.24,126,8.25,74136.5,-6.01,-6.97,-6.97,0,*52
1484924706.47,127,8.25,74134.8,-6.01,-6.97,-7.05,0,*59
1484924707.68,128,8.25,74134.8,-6.01,-6.97,-6.85,0,*5F
1484924708.88,129,8.25,74132.0,-6.01,-6.93,-6.85,0,*5A
1484924710.12,130,8.25,74132.0,-6.01,-6.97,-6.97,0,*55
1484924711.35,131,8.25,74136.8,-5.99,-7.11,-7.05,0,*53
1484924712.53,132,8.25,74136.0,-6.01,-6.85,-6.77,0,*5A
1484924713.76,133,8.25,74136.0,-6.01,-6.93,-6.93,0,*56
1484924714.95,134,8.25,74134.0,-6.01,-7.11,-7.19,0,*59
1484924716.17,135,8.25,74134.0,-5.99,-7.19,-7.19,0,*52
1484924717.35,136,8.25,74134.8,-6.01,-7.23,-7.19,0,*5A
1484924718.58,137,8.25,74136.0,-6.01,-7.35,-7.31,0,*56
1484924719.77,138,8.25,74134.5,-6.01,-7.19,-7.23,0,*54
1484924721.03,139,8.25,74136.5,-5.99,-7.31,-7.31,0,*5E
1484924722.22,140,8.25,74136.0,-6.01,-7.23,-7.11,0,*53
1484924723.41,141,8.25,74136.0,-6.01,-7.11,-7.11,0,*53
1484924724.62,142,8.25,74132.3,-6.01,-7.19,-6.97,0,*57
1484924725.82,143,8.25,74134.3,-6.01,-7.19,-7.05,0,*5C
1484924727.03,144,8.25,74134.5,-6.01,-7.11,-7.05,0,*53
1484924728.24,145,8.31,74138.3,-6.01,-7.31,-7.23,0,*54
1484924729.43,146,8.25,74138.8,-6.01,-7.19,-7.19,0,*54
1484924730.65,147,8.25,74138.0,-6.01,-7.05,-7.05,0,*55
1484924731.86,148,8.25,74136.0,-6.05,-7.15,-7.01,0,*5B
1484924733.09,149,8.25,74138.8,-6.01,-6.97,-7.05,0,*51
1484924734.31,150,8.25,74138.0,-6.01,-7.05,-7.05,0,*53
1484924735.52,151,8.25,74142.3,-6.01,-7.11,-7.05,0,*57
1484924736.72,152,8.25,74142.0,-6.01,-7.19,-7.05,0,*5C
1484924737.91,153,8.25,74140.0,-6.01,-7.19,-7.19,0,*50
1484924739.12,154,8.25,74140.0,-6.01,-7.35,-7.23,0,*50
1484924740.34,155,8.25,74142.8,-5.99,-7.19,-7.11,0,*5C
1484924741.55,156,8.25,74144.0,-6.01,-7.11,-6.97,0,*5A
1484924742.76,157,8.25,74142.5,-6.05,-7.15,-7.01,0,*55
1484924743.97,158,8.25,74146.8,-6.01,-7.19,-6.97,0,*5C
1484924745.2,159,8.25,74146.0,-6.01,-7.05,-6.93,0,*54
1484924746.43,160,8.25,74146.3,-6.01,-6.97,-6.93,0,*54
1484924747.64,161,8.25,74144.5,-6.01,-6.97,-6.85,0,*52
1484924748.88,162,8.25,74146.0,-5.99,-6.97,-6.85,0,*53
1484924750.09,163,8.25,74144.8,-6.05,-7.01,-6.89,0,*56
1484924751.28,164,8.25,74144.5,-6.05,-7.11,-6.89,0,*50
1484924752.51,165,8.25,74142.5,-6.01,-6.97,-6.93,0,*51
1484924753.7,166,8.25,74140.5,-6.01,-7.11,-6.85,0,*5A
1484924754.91,167,8.25,74142.5,-6.01,-7.19,-6.93,0,*54
1484924756.14,168,8.25,74142.5,-5.99,-7.11,-6.97,0,*55
1484924757.37,169,8.25,74136.3,-6.01,-7.05,-6.97,0,*53
1484924758.58,170,8.25,74140.0,-6.01,-6.97,-6.85,0,*52
1484924759.79,171,8.25,74136.3,-6.01,-6.97,-6.85,0,*53
1484924761.03,172,8.25,74138.3,-6.01,-6.97,-6.93,0,*57
1484924762.29,173,8.25,74136.8,-5.99,-6.97,-6.93,0,*54
1484924763.51,174,8.25,74136.3,-6.01,-7.05,-7.05,0,*55
1484924764.73,175,8.25,74138.3,-6.01,-7.05,-7.05,0,*54
1484924765.96,176,8.25,74138.3,-6.01,-7.05,-7.05,0,*57
1484924767.16,177,8.25,74136.8,-6.01,-7.11,-7.05,0,*53
1484924768.42,178,8.25,74136.8,-5.99,-6.97,-6.93,0,*5F
1484924769.66,179,8.25,74136.3,-6.01,-6.93,-6.93,0,*58
1484924770.88,180,8.31,74140.5,-6.01,-7.05,-7.05,0,*5E
1484924772.11,181,8.25,74138.0,-6.01,-7.05,-7.05,0,*5F
1484924773.36,182,8.25,74138.3,-5.99,-6.97,-6.93,0,*5A
1484924774.6,183,8.25,74138.8,-6.01,-6.97,-6.97,0,*5D
1484924775.8,184,8.25,74138.8,-6.01,-6.85,-6.93,0,*5D
1484924777.04,185,8.25,74134.8,-6.01,-6.93,-6.93,0,*5B
1484924778.25,186,8.25,74136.5,-6.01,-6.93,-6.85,0,*5F
1484924779.48,187,8.25,74138.5,-6.01,-6.97,-6.93,0,*5D
1484924780.69,188,8.25,74136.8,-6.01,-6.85,-6.93,0,*51
1484924781.92,189,8.25,74142.5,-6.01,-7.05,-6.93,0,*59
1484924783.16,190,8.25,74140.3,-6.01,-6.97,-6.93,0,*5B
1484924784.41,191,8.25,74142.8,-5.99,-6.97,-6.93,0,*58
1484924785.65,192,8.25,74142.8,-6.01,-6.97,-6.97,0,*5D
1484924786.9,193,8.25,74140.8,-5.99,-7.05,-6.97,0,*54
1484924788.11,194,8.25,74138.0,-6.01,-6.97,-6.85,0,*58
1484924789.34,195,8.25,74132.3,-6.01,-7.05,-6.93,0,*54
1484924790.55,196,8.25,74136.5,-6.01,-7.11,-7.05,0,*5C
1484924791.74,197,8.25,74134.0,-6.01,-7.19,-7.19,0,*58
1484924792.93,198,8.25,74134.3,-6.01,-7.19,-7.11,0,*5F
1484924794.13,199,8.25,74134.0,-6.01,-7.19,-7.05,0,*5B
1484924795.34,200,8.25,74132.0,-6.01,-7.11,-7.05,0,*50
1484924796.55,201,8.25,74132.5,-5.99,-7.11,-7.11,0,*56
1484924797.74,202,8.25,74138.0,-6.01,-7.23,-7.19,0,*5E
1484924799.0,203,8.25,74136.5,-5.99,-7.43,-7.31,0,*51
1484924800.24,204,8.25,74138.0,-6.01,-7.57,-7.43,0,*54
1484924801.44,205,8.25,74138.5,-6.01,-7.49,-7.35,0,*5B
1484924802.67,206,8.25,74140.8,-6.01,-7.35,-7.35,0,*53
1484924803.91,207,8.31,74142.0,-6.05,-7.27,-7.27,0,*56
1484924805.09,208,8.25,74142.3,-6.05,-6.89,-6.85,0,*55
1484924806.33,209,8.31,74144.0,-6.05,-7.01,-6.97,0,*56
1484924807.54,210,8.25,74140.0,-6.05,-7.11,-7.01,0,*51
1484924808.74,211,8.31,74144.8,-6.05,-7.11,-7.11,0,*51
1484924809.93,212,8.25,74142.0,-6.05,-7.23,-7.11,0,*53
1484924811.14,213,8.25,74144.0,-6.05,-7.11,-7.01,0,*52
1484924812.36,214,8.31,74148.5,-6.01,-6.93,-6.81,0,*53
1484924813.59,215,8.25,74142.8,-6.01,-6.93,-6.93,0,*51
1484924814.8,216,8.25,74148.5,-6.01,-6.97,-6.85,0,*51
1484924816.01,217,8.25,74150.5,-6.01,-7.11,-6.97,0,*5C
1484924817.25,218,8.25,74150.0,-6.01,-6.97,-6.97,0,*5C
1484924818.46,219,8.25,74150.3,-6.01,-6.93,-6.85,0,*5A
1484924819.65,220,8.25,74144.8,-6.01,-6.85,-6.81,0,*53
1484924820.84,221,8.31,74148.0,-5.99,-6.69,-6.69,0,*54
1484924822.03,222,8.31,74150.3,-6.01,-6.81,-6.81,0,*55
1484924823.27,223,8.31,74148.3,-6.01,-6.97,-6.97,0,*54
1484924824.46,224,8.25,74146.0,-6.01,-7.19,-7.11,0,*5B
1484924825.69,225,8.25,74144.0,-5.99,-6.93,-6.85,0,*57
1484924826.95,226,8.31,74146.0,-5.99,-6.97,-6.97,0,*53
1484924828.2,227,8.31,74142.8,-5.99,-7.05,-6.93,0,*5C
1484924829.43,228,8.25,74140.5,-5.99,-6.69,-6.63,0,*57
1484924830.69,229,8.25,74136.5,-5.99,-7.05,-6.93,0,*52
1484924831.92,230,8.25,74136.3,-6.01,-7.05,-6.93,0,*58
1484924833.17,231,8.31,74138.8,-5.99,-7.05,-6.93,0,*5B
1484924834.41,232,8.25,74140.3,-5.99,-7.11,-6.93,0,*5D
1484924835.61,233,8.25,74140.3,-6.01,-7.11,-7.05,0,*50
1484924836.82,234,8.25,74140.3,-6.01,-7.11,-7.05,0,*57
1484924838.05,235,8.25,74140.5,-6.01,-7.05,-6.97,0,*59
1484924839.3,236,8.25,74140.8,-5.99,-7.05,-6.93,0,*5C
1484924840.5,237,8.25,74142.8,-6.01,-6.51,-6.31,0,*57
1484924841.7,238,8.31,74146.0,-5.99,-6.69,-6.55,0,*53
1484924842.91,239,8.25,74140.3,-5.99,-6.85,-6.81,0,*59
1484924844.11,240,8.25,74138.5,-5.99,-6.85,-6.85,0,*53
1484924845.32,241,8.25,74140.8,-6.01,-6.93,-6.85,0,*57
1484924846.56,242,8.25,74142.0,-5.99,-6.93,-6.85,0,*56
1484924847.79,243,8.25,74138.8,-5.99,-6.93,-6.85,0,*57
1484924849.02,244,8.25,74138.5,-5.99,-6.93,-6.85,0,*50
1484924850.21,245,8.25,74140.8,-6.01,-6.85,-6.77,0,*59
1484924851.41,246,8.25,74142.0,-5.99,-6.77,-6.69,0,*5A
1484924852.65,247,8.25,74142.3,-5.99,-6.81,-6.63,0,*58
1484924853.86,248,8.25,74140.0,-5.99,-6.81,-6.77,0,*52
1484924855.07,249,8.25,74140.0,-5.99,-6.81,-6.81,0,*5A
1484924856.28,250,8.25,74140.8,-5.99,-6.81,-6.77,0,*5B
1484924857.5,251,8.25,74138.0,-5.99,-6.81,-6.81,0,*53
1484924858.7,252,8.25,74136.8,-5.99,-6.77,-6.77,0,*50
1484924859.92,253,8.25,74142.5,-5.99,-6.81,-6.81,0,*51
1484924861.1,254,8.25,74142.0,-5.97,-6.77,-6.77,0,*58
1484924862.29,255,8.25,74142.3,-5.97,-6.81,-6.73,0,*54
1484924863.47,256,8.25,74140.3,-5.97,-6.81,-6.77,0,*53
1484924864.66,257,8.31,74140.0,-5.97,-6.81,-6.81,0,*5B
1484924865.85,258,8.25,74140.3,-5.97,-6.81,-6.73,0,*59
1484924867.08,259,8.25,74142.3,-5.99,-6.93,-6.85,0,*5C
1484924868.34,260,8.25,74142.0,-5.99,-6.97,-6.93,0,*55
1484924869.57,261,8.25,74142.3,-5.99,-6.97,-6.85,0,*53
1484924870.83,262,8.25,74140.8,-5.99,-6.93,-6.93,0,*53
1484924872.02,263,8.25,74146.0,-5.97,-6.89,-6.81,0,*54
1484924873.21,264,8.25,74140.8,-5.97,-6.81,-6.81,0,*5B
1484924874.41,265,8.25,74142.5,-5.99,-6.85,-6.85,0,*54
1484924875.62,266,8.25,74140.0,-5.99,-6.81,-6.77,0,*5E
1484924876.81,267,8.25,74140.0,-5.97,-6.89,-6.81,0,*50
1484924878.02,268,8.25,74138.5,-5.97,-7.01,-6.89,0,*56
1484924879.23,269,8.31,74144.5,-5.97,-6.93,-6.89,0,*5D
1484924880.42,270,8.25,74142.5,-5.95,-6.89,-6.81,0,*54
1484924881.61,271,8.25,74142.0,-5.97,-6.81,-6.73,0,*52
1484924882.82,272,8.25,74138.8,-5.95,-6.35,-6.23,0,*59
1484924884.03,273,8.31,74140.5,-5.97,-6.93,-6.77,0,*57
1484924885.27,274,8.31,74140.0,-5.95,-7.05,-6.93,0,*56
1484924886.46,275,8.25,74142.0,-5.97,-6.89,-6.81,0,*53
1484924887.65,276,8.25,74142.8,-5.97,-6.89,-6.81,0,*50
1484924888.88,277,8.25,74144.0,-5.97,-7.05,-7.01,0,*5D
1484924890.06,278,8.25,74142.5,-5.97,-7.15,-7.15,0,*56
1484924891.28,279,8.25,74142.0,-5.97,-6.93,-6.81,0,*54
1484924892.46,280,8.25,74140.8,-5.97,-6.77,-6.77,0,*51
1484924893.67,281,8.25,74142.8,-5.97,-7.01,-6.89,0,*51
1484924894.9,282,8.31,74142.3,-5.97,-6.93,-7.01,0,*59
1484924896.13,283,8.25,74138.0,-5.97,-7.01,-6.93,0,*58
1484924897.32,284,8.25,74136.8,-5.97,-6.89,-6.81,0,*5D
1484924898.51,285,8.25,74136.0,-5.97,-6.81,-6.81,0,*54
1484924899.73,286,8.25,74142.3,-5.99,-7.19,-7.19,0,*59
1484924900.91,287,8.25,74136.5,-5.97,-7.19,-7.15,0,*5A
1484924902.15,288,8.25,74138.5,-5.97,-6.93,-6.93,0,*59
1484924903.38,289,8.25,74138.5,-5.97,-7.01,-7.01,0,*58
1484924904.56,290,8.31,74146.0,-5.97,-7.15,-7.15,0,*50
1484924905.79,291,8.25,74140.0,-5.97,-7.27,-7.27,0,*51
1484924906.98,292,8.31,74146.3,-5.97,-7.19,-7.15,0,*5E
1484924908.18,293,8.25,74140.3,-5.97,-7.15,-7.05,0,*52
1484924909.43,294,8.25,74142.0,-5.99,-7.05,-7.05,0,*5A
1484924910.68,295,8.25,74140.0,-5.99,-7.05,-6.97,0,*51
1484924911.93,296,8.25,74138.3,-5.99,-7.05,-7.05,0,*58
1484924913.19,297,8.25,74136.3,-5.99,-6.97,-6.93,0,*5D
1484924914.44,298,8.25,74136.8,-5.99,-7.05,-7.05,0,*56
1484924915.65,299,8.25,74142.0,-5.99,-7.11,-7.11,0,*57
1484924916.88,300,8.25,74144.8,-5.99,-7.31,-7.23,0,*55
1484924918.09,301,8.25,74140.3,-5.99,-7.23,-7.19,0,*5E
1484924919.3,302,8.25,74138.0,-6.01,-7.11,-7.05,0,*53
1484924920.53,303,8.31,74140.0,-6.01,-7.31,-7.35,0,*53
1484924921.79,304,8.25,74138.3,-5.99,-7.57,-7.57,0,*52
1484924923.05,305,8.25,74136.8,-5.99,-7.57,-7.57,0,*53
1484924924.27,306,8.25,74140.5,-6.01,-7.57,-7.49,0,*5D
1484924925.5,307,8.25,74142.0,-5.99,-7.49,-7.43,0,*5B
1484924926.71,308,8.25,74138.0,-6.01,-7.35,-7.23,0,*5B
1484924927.9,309,8.25,74136.8,-6.01,-7.23,-7.23,0,*5D